Location: Canyon Rim
(40.8777°N, 111.8641°W)
Time: 04:43:45
(UTC+00:00)

Max Valier Satellite - Visible Passes

Search period start: 15 June 2021 00:00
Search period end: 25 June 2021 00:00
Orbit: 487 x 503 km, 97.3° (Epoch: 14 June)

Date Brightness Start Highest point End Pass type
(mag) Time Alt. Az. Time Alt. Az. Time Alt. Az.
15 Jun ? 05:01:18 10° W 05:01:41 10° W 05:02:04 10° W visible
16 Jun ? 04:37:42 10° SW 04:40:19 18° W 04:42:57 10° NW visible
17 Jun ? 04:15:40 10° SSW 04:19:01 33° W 04:22:23 10° NNW visible
18 Jun ? 03:54:07 10° S 03:57:46 64° W 04:01:26 10° NNW visible
19 Jun ? 03:32:57 10° SSE 03:36:35 66° ENE 03:40:14 10° N visible
20 Jun ? 04:47:11 10° SW 04:49:14 14° W 04:51:17 10° WNW visible
21 Jun ? 04:24:48 10° SSW 04:27:53 25° W 04:31:00 10° NW visible
22 Jun ? 04:03:03 10° S 04:06:36 47° W 04:10:10 10° NNW visible
23 Jun ? 03:41:43 10° SSE 03:45:23 87° ENE 03:49:03 10° N visible
24 Jun ? 04:57:04 10° WSW 04:58:06 11° W 04:59:09 10° WNW visible
